Location: Düngen
(52.0952°N, 10.0219°E)
Time: 04:17:57
(UTC+00:00)

Cosmos 2263 Rocket - Visible Passes

Search period start: 06 June 2026 00:00
Search period end: 16 June 2026 00:00
Orbit: 824 x 845 km, 71.0° (Epoch: 5 June)

Date Brightness Start Highest point End Pass type
(mag) Time Alt. Az. Time Alt. Az. Time Alt. Az.
6 Jun 5.4 00:00:29 10° NNW 00:02:19 11° N 00:04:09 10° N visible
6 Jun 5.3 01:46:21 10° N 01:48:55 13° NNE 01:51:29 10° NE visible
6 Jun 4.6 21:54:23 10° W 21:58:56 25° NW 22:03:31 10° NNE visible
6 Jun 5.4 23:43:02 10° NNW 23:44:59 12° NNW 23:46:56 10° N visible
7 Jun 5.4 01:29:09 10° N 01:31:36 13° NNE 01:34:02 10° NE visible
7 Jun 4.5 21:37:02 10° W 21:41:40 26° NW 21:46:20 10° NNE visible
7 Jun 5.4 23:25:35 10° NW 23:27:39 12° NNW 23:29:44 10° N visible
8 Jun 5.5 01:11:58 10° N 01:14:16 12° NNE 01:16:35 10° NE visible
8 Jun 4.5 21:19:40 10° W 21:24:24 28° NW 21:29:09 10° NNE visible
8 Jun 5.4 23:08:07 10° NW 23:10:20 12° NNW 23:12:32 10° N visible
9 Jun 5.6 00:54:46 10° N 00:56:56 12° NNE 00:59:07 10° NE visible
9 Jun 4.4 21:02:18 10° WSW 21:07:08 29° NW 21:11:58 10° NNE visible
9 Jun 5.5 22:50:39 10° NW 22:53:00 13° NNW 22:55:21 10° N visible
10 Jun 5.6 00:37:34 10° N 00:39:37 12° NNE 00:41:39 10° NE visible
10 Jun 4.4 20:44:58 10° WSW 20:49:52 31° NW 20:54:47 10° NNE visible
10 Jun 5.5 22:33:12 10° NW 22:35:41 13° NNW 22:38:10 10° N visible
11 Jun 5.7 00:20:22 10° N 00:22:18 12° N 00:24:13 10° NNE visible
11 Jun 4.9 02:03:48 10° NNW 02:08:22 25° NE 02:12:54 10° E visible
11 Jun 4.3 20:27:37 10° WSW 20:32:36 32° NW 20:37:36 10° NNE visible
11 Jun 5.5 22:15:44 10° NW 22:18:21 13° NNW 22:20:59 10° N visible
12 Jun 5.8 00:03:10 10° N 00:04:58 11° N 00:06:45 10° NNE visible
12 Jun 5.0 01:46:38 10° NNW 01:51:04 23° NE 01:55:31 10° E visible
12 Jun 5.6 21:58:17 10° NW 22:01:02 14° NNW 22:03:48 10° N visible
12 Jun 5.8 23:45:56 10° N 23:47:37 11° N 23:49:19 10° NNE visible
13 Jun 5.0 01:29:27 10° NNW 01:33:47 22° NE 01:38:08 10° E visible
13 Jun 5.5 21:40:50 10° NW 21:43:43 14° NNW 21:46:37 10° N visible
13 Jun 5.8 23:28:42 10° N 23:30:17 11° N 23:31:52 10° NNE visible
14 Jun 5.0 01:12:16 10° NNW 01:16:30 21° NE 01:20:44 10° E visible
14 Jun 5.5 21:23:23 10° NW 21:26:24 15° NNW 21:29:26 10° N visible
14 Jun 5.7 23:11:28 10° N 23:12:57 11° N 23:14:27 10° NNE visible
15 Jun 5.1 00:55:05 10° NNW 00:59:13 20° NNE 01:03:21 10° E visible
15 Jun 5.4 21:05:55 10° WNW 21:09:05 15° NNW 21:12:15 10° NNE visible
15 Jun 5.7 22:54:12 10° N 22:55:37 11° N 22:57:02 10° NNE visible
